Weather History for La Porte, IN

Change the Weather History Date:

Friday, September 13, 2013

  Actual Average (KVPZ) Record (KVPZ)
Temperature  
Mean Temperature 52 °F 65 °F  
Max Temperature 63 °F 76 °F 92 °F (2005)
Min Temperature 42 °F 54 °F 41 °F (2014)
Degree Days  
Heating Degree Days 12 3  
Month to date heating degree days 22  
Since 1 July heating degree days 39  
Cooling Degree Days 0 2  
Month to date cooling degree days 43  
Year to date cooling degree days 679  
Growing Degree Days 2 (Base 50)    
Moisture  
Dew Point 44 °F    
Average Humidity 65    
Maximum Humidity 95    
Minimum Humidity 45    
Precipitation  
Precipitation 0.00 in 0.09 in 2.70 in (2008)
Month to date precipitation 1.54  
Year to date precipitation 27.08  
Sea Level Pressure  
Sea Level Pressure 30.13 in    
Wind  
Wind Speed 9 mph (NNE)    
Max Wind Speed 18 mph    
Max Gust Speed 26 mph    
Visibility 10 miles    
Events Rain    
T = Trace of Precipitation, MM = Missing Value Source: NWS Daily Summary

Daily Weather History Graph

Daily Weather History Graph

Search for Another Location

Airport:

Trip Planner

Search our weather history database for the weather conditions in past years. The results will help you decide how hot, cold, wet, or windy it might be!

Date:

Astronomy

Sep. 13, 2013 Rise Set
Actual Time 6:25 AM CDT 6:59 PM CDT
Civil Twilight 5:57 AM CDT 7:27 PM CDT
Nautical Twilight 5:24 AM CDT 8:00 PM CDT
Astronomical Twilight 4:50 AM CDT 8:33 PM CDT
Moon 2:51 PM CDT (9/13) No Moon Set
Length of Visible Light 13h 29m
Length of Day
12h 33m
First Quarter, 61% of the Moon is Illuminated
Sep 13
First Quarter
Sep 19
Full
Sep 26
Last Quarter
Oct 4
New
Oct 11
First Quarter

Hourly Weather History & Observations

Time (CDT) Temp. Windchill Dew Point Humidity Pressure Visibility Wind Dir Wind Speed Gust Speed Precip Events Conditions
12:15 AM 60.3 °F - 49.1 °F 67% 30.07 in 10.0 mi NNE 13.8 mph 18.4 mph N/A   Overcast
12:35 AM 59.2 °F - 48.7 °F 68% 30.07 in 10.0 mi ENE 5.8 mph 21.9 mph N/A   Scattered Clouds
12:55 AM 58.8 °F - 49.1 °F 70% 30.08 in 10.0 mi NE 8.1 mph - N/A   Mostly Cloudy
1:15 AM 58.3 °F - 47.3 °F 67% 30.08 in 10.0 mi NE 8.1 mph - N/A   Overcast
1:35 AM 58.1 °F - 47.3 °F 67% 30.08 in 10.0 mi NE 4.6 mph - N/A   Overcast
1:55 AM 57.4 °F - 46.9 °F 68% 30.08 in 10.0 mi NE 5.8 mph - N/A   Overcast
2:15 AM 57.0 °F - 47.1 °F 69% 30.08 in 10.0 mi ENE 4.6 mph - N/A   Overcast
2:35 AM 56.5 °F - 47.7 °F 72% 30.08 in 10.0 mi NE 4.6 mph - N/A Rain Rain
2:55 AM 55.9 °F - 46.2 °F 70% 30.08 in 10.0 mi NE 4.6 mph - N/A   Overcast
3:15 AM 55.6 °F - 46.2 °F 71% 30.08 in 10.0 mi ENE 5.8 mph - N/A   Overcast
3:35 AM 55.4 °F - 46.4 °F 72% 30.08 in 10.0 mi ENE 5.8 mph - N/A   Overcast
3:55 AM 55.0 °F - 46.4 °F 73% 30.08 in 10.0 mi NE 5.8 mph - N/A   Overcast
4:15 AM 55.0 °F - 46.4 °F 73% 30.09 in 10.0 mi NE 5.8 mph - N/A   Overcast
4:35 AM 54.5 °F - 46.4 °F 74% 30.08 in 10.0 mi ENE 3.5 mph - N/A   Overcast
4:55 AM 54.0 °F - 47.1 °F 78% 30.09 in 10.0 mi Calm Calm - N/A   Overcast
5:15 AM 54.0 °F - 45.7 °F 74% 30.09 in 10.0 mi ENE 4.6 mph - N/A   Overcast
5:35 AM 53.6 °F - 45.3 °F 74% 30.10 in 10.0 mi Calm Calm - N/A   Overcast
5:55 AM 53.6 °F - 44.8 °F 72% 30.10 in 10.0 mi NNE 8.1 mph - N/A   Overcast
6:15 AM 53.6 °F - 43.7 °F 69% 30.11 in 10.0 mi NNE 8.1 mph - N/A   Overcast
6:35 AM 53.6 °F - 43.7 °F 69% 30.11 in 10.0 mi NE 5.8 mph - N/A   Overcast
6:55 AM 53.6 °F - 43.5 °F 69% 30.12 in 10.0 mi ENE 6.9 mph - N/A   Overcast
7:15 AM 53.1 °F - 43.3 °F 70% 30.12 in 10.0 mi NE 6.9 mph - N/A   Overcast
7:35 AM 53.2 °F - 43.0 °F 68% 30.12 in 10.0 mi NE 4.6 mph - N/A   Overcast
7:55 AM 53.6 °F - 43.0 °F 67% 30.13 in 10.0 mi NE 4.6 mph - N/A   Overcast
8:15 AM 54.3 °F - 43.2 °F 66% 30.13 in 10.0 mi NNE 9.2 mph - N/A   Overcast
8:35 AM 54.0 °F - 42.8 °F 66% 30.13 in 10.0 mi NNE 6.9 mph - N/A   Overcast
8:55 AM 54.0 °F - 42.1 °F 64% 30.14 in 10.0 mi NE 8.1 mph - N/A   Overcast
9:15 AM 56.3 °F - 42.6 °F 60% 30.14 in 10.0 mi NE 8.1 mph - N/A   Overcast
9:35 AM 57.4 °F - 42.8 °F 58% 30.14 in 10.0 mi NE 12.7 mph - N/A   Overcast
9:55 AM 56.8 °F - 42.3 °F 58% 30.15 in 10.0 mi NNE 10.4 mph 19.6 mph N/A   Mostly Cloudy
10:15 AM 59.0 °F - 42.8 °F 55% 30.15 in 10.0 mi NNE 10.4 mph 20.7 mph N/A   Scattered Clouds
10:35 AM 60.3 °F - 43.7 °F 54% 30.15 in 10.0 mi NNE 13.8 mph 19.6 mph N/A   Scattered Clouds
10:55 AM 60.4 °F - 44.6 °F 56% 30.15 in 10.0 mi NNE 12.7 mph 18.4 mph N/A   Overcast
11:15 AM 61.2 °F - 43.3 °F 52% 30.16 in 10.0 mi NNE 16.1 mph 23.0 mph N/A   Mostly Cloudy
11:35 AM 61.5 °F - 44.1 °F 53% 30.16 in 10.0 mi NNE 16.1 mph - N/A   Scattered Clouds
11:55 AM 62.2 °F - 44.4 °F 52% 30.15 in 10.0 mi North 16.1 mph 23.0 mph N/A   Scattered Clouds
12:15 PM 61.0 °F - 44.4 °F 54% 30.15 in 10.0 mi North 15.0 mph 24.2 mph N/A   Scattered Clouds
12:35 PM 62.8 °F - 44.8 °F 52% 30.14 in 10.0 mi NNE 16.1 mph 23.0 mph N/A   Mostly Cloudy
12:55 PM 61.5 °F - 44.1 °F 53% 30.14 in 10.0 mi North 13.8 mph 23.0 mph N/A   Mostly Cloudy
1:15 PM 62.2 °F - 43.5 °F 50% 30.14 in 10.0 mi North 16.1 mph 26.5 mph N/A   Scattered Clouds
1:35 PM 61.9 °F - 43.5 °F 51% 30.14 in 10.0 mi North 17.3 mph 25.3 mph N/A   Mostly Cloudy
1:55 PM 63.1 °F - 41.2 °F 45% 30.13 in 10.0 mi NNW 16.1 mph 26.5 mph N/A   Scattered Clouds
2:15 PM 62.6 °F - 41.4 °F 46% 30.13 in 10.0 mi North 16.1 mph 26.5 mph N/A   Mostly Cloudy
2:35 PM 61.5 °F - 41.4 °F 48% 30.13 in 10.0 mi NNW 17.3 mph 23.0 mph N/A   Scattered Clouds
2:55 PM 62.1 °F - 41.4 °F 47% 30.14 in 10.0 mi North 18.4 mph 23.0 mph N/A   Mostly Cloudy
3:15 PM 61.3 °F - 42.3 °F 50% 30.13 in 10.0 mi North 15.0 mph 20.7 mph N/A   Mostly Cloudy
3:35 PM 61.0 °F - 43.2 °F 52% 30.13 in 10.0 mi North 17.3 mph 24.2 mph N/A   Mostly Cloudy
3:55 PM 61.3 °F - 41.5 °F 48% 30.13 in 10.0 mi North 18.4 mph 25.3 mph N/A   Scattered Clouds
4:15 PM 60.6 °F - 42.4 °F 51% 30.12 in 10.0 mi North 16.1 mph 24.2 mph N/A   Clear
4:35 PM 60.3 °F - 42.3 °F 51% 30.13 in 10.0 mi NNW 17.3 mph 21.9 mph N/A   Clear
4:55 PM 59.9 °F - 41.0 °F 50% 30.13 in 10.0 mi North 15.0 mph 21.9 mph N/A   Clear
5:15 PM 59.5 °F - 41.0 °F 50% 30.13 in 10.0 mi North 13.8 mph 19.6 mph N/A   Clear
5:35 PM 58.6 °F - 39.6 °F 49% 30.13 in 10.0 mi North 12.7 mph 19.6 mph N/A   Clear
5:55 PM 57.9 °F - 40.1 °F 52% 30.13 in 10.0 mi North 13.8 mph - N/A   Clear
6:15 PM 57.2 °F - 41.9 °F 57% 30.14 in 10.0 mi NNE 11.5 mph - N/A   Clear
6:35 PM 56.1 °F - 42.1 °F 59% 30.14 in 10.0 mi North 11.5 mph - N/A   Clear
6:55 PM 54.5 °F - 42.3 °F 63% 30.14 in 10.0 mi NNE 6.9 mph - N/A   Clear
7:15 PM 53.6 °F - 42.3 °F 65% 30.14 in 10.0 mi NNE 6.9 mph - N/A   Clear
7:35 PM 51.8 °F - 42.1 °F 69% 30.14 in 10.0 mi NNE 6.9 mph - N/A   Clear
7:55 PM 51.4 °F - 42.1 °F 70% 30.15 in 10.0 mi NNE 6.9 mph - N/A   Clear
8:15 PM 50.5 °F - 41.9 °F 72% 30.15 in 10.0 mi NNE 5.8 mph - N/A   Clear
8:35 PM 49.6 °F - 41.9 °F 75% 30.16 in 10.0 mi NNE 5.8 mph - N/A   Clear
8:55 PM 50.0 °F - 42.3 °F 75% 30.16 in 10.0 mi NNE 5.8 mph - N/A   Clear
9:15 PM 49.1 °F - 42.1 °F 77% 30.15 in 10.0 mi NNE 5.8 mph - N/A   Clear
9:35 PM 49.1 °F - 42.3 °F 77% 30.15 in 10.0 mi NNE 4.6 mph - N/A   Clear
9:55 PM 48.2 °F - 42.1 °F 79% 30.15 in 10.0 mi NNE 4.6 mph - N/A   Clear
10:15 PM 47.8 °F - 42.6 °F 82% 30.15 in 10.0 mi NNE 4.6 mph - N/A   Clear
10:35 PM 46.9 °F - 42.6 °F 85% 30.16 in 10.0 mi NNE 4.6 mph - N/A   Clear
10:55 PM 46.4 °F 44.3 °F 42.4 °F 86% 30.15 in 10.0 mi NNE 4.6 mph - N/A   Clear
11:15 PM 45.1 °F 42.8 °F 41.7 °F 88% 30.15 in 10.0 mi NNE 4.6 mph - N/A   Clear
11:35 PM 42.4 °F - 39.7 °F 90% 30.15 in 10.0 mi Calm Calm - N/A   Clear
11:55 PM 42.8 °F - 41.5 °F 95% 30.15 in 10.0 mi Calm Calm - N/A   Clear